Location: ???? ????
(31.2831°N, 45.5190°E)
Time: 22:50:51
(UTC+00:00)

Tiangong - Pass Details

Date: 04 October 2021
Orbit: 382 x 384 km, 41.5° (Epoch: 20 October)

Event Time Altitude Azimuth Distance (km) Brightness Sun altitude
Exits shadow 00:59:10 12° 21° (NNE) 1,290 4.1 -25.1°
Drops below altitude 10° 00:59:49 10° 33° (NNE) 1,396 4.4 -25.0°
Sets 01:02:45 0° 63° (ENE) 2,247 6.2 -24.4°
